www.pogodaiklimat.ru

Погода и климат >> Архив погоды >> Канада >> Pelly Bay


ПОГОДА в Pelly Bay

  • Прогноз погоды в Pelly Bay
  • Монитор погоды в Pelly Bay
  • Климат города

АРХИВ ПОГОДЫ в Pelly Bay

Время (UTC), дата Ветер
(напр.,м/с)
 
Видим.   Явления Облачность Т
(С)
Тd
(С)
f
(%)
Тe
(С)
Тes
(С)
Комфортность P
(гПа)
Po
(гПа)
Тmin
(С)
Tmax
(С)
R
(мм)
R24
(мм)
S
(см)
03 13.11 СЗ 9 н/о н/о -22.3 -36 -36 опасность
обморожения
1014.8 971.7
06 13.11 СЗ 6 н/о н/о -22.3 -34 -34 опасность
обморожения
1015.7 972.5 -22.8 -15.2 231
09 13.11 З 5 н/о н/о -21.1 -31 -31 опасность
обморожения
1016.3 973.0
12 13.11 З 3 н/о н/о -21.2 -29 -29 1016.5 973.2 -22.7 -15.2
15 13.11 З 4 н/о н/о -22.1 -31 -31 опасность
обморожения
1016.0 972.7
18 13.11 З 5 н/о н/о -22.5 -33 -33 опасность
обморожения
1016.2 972.9 -22.8 -20.9
21 13.11 З 5 н/о н/о -22.3 -33 -33 опасность
обморожения
1015.8 972.6
00 14.11 З 7 н/о н/о -23.8 -36 -36 опасность
обморожения
1015.7 972.4 -23.8 -21.2
03 14.11 З 9 н/о н/о -23.7 -38 -38 опасность
обморожения
1015.0 971.7
06 14.11 СЗ 13 н/о н/о -22.6 -39 -39 опасность
обморожения
1014.6 971.3 -24.2 -20.9 61
09 14.11 СЗ 12 н/о н/о -22.6 -38 -38 опасность
обморожения
1015.2 971.9
12 14.11 СЗ 10 н/о н/о -22.5 -37 -37 опасность
обморожения
1015.6 972.2 -24.2 -20.9
15 14.11 СЗ 13 н/о н/о -23.6 -40 -40 опасность
обморожения
1014.8 971.4
18 14.11 СЗ 11 н/о н/о -26.0 -42 -42 опасность
обморожения
1015.6 972.1 -26.0 -22.4
21 14.11 СЗ 9 н/о н/о -27.1 -42 -42 опасность
обморожения
1015.7 972.1
00 15.11 З 6 н/о н/о -27.4 -40 -40 опасность
обморожения
1016.1 972.5 -27.7 -22.4
03 15.11 СЗ 7 н/о н/о -27.7 -42 -42 опасность
обморожения
1015.9 972.2
06 15.11 СЗ 9 н/о н/о -28.8 -45 -45 опасность
обморожения
1016.2 972.3 -28.8 -22.4 91
09 15.11 З 11 н/о н/о -28.1 -45 -45 опасность
обморожения
1016.6 972.7
12 15.11 З 7 н/о н/о -27.2 -41 -41 опасность
обморожения
1017.1 973.2 -29.0 -22.4
15 15.11 З 7 н/о н/о -27.6 -41 -41 опасность
обморожения
1017.0 973.1
18 15.11 З 10 н/о н/о -26.6 -43 -43 опасность
обморожения
1016.2 972.3 -29.0 -26.6
21 15.11 З 9 н/о н/о -27.3 -42 -42 опасность
обморожения
1016.3 972.4
00 16.11 З 8 н/о н/о -27.1 -42 -42 опасность
обморожения
1016.3 972.4 -29.0 -26.5
03 16.11 З 10 н/о н/о -26.1 -42 -42 опасность
обморожения
1016.0 972.2
06 16.11 ЮЗ 7 н/о н/о -24.7 -38 -38 опасность
обморожения
1016.1 972.4 -29.0 -24.7 101
09 16.11 ЮЗ 8 н/о н/о -23.1 -37 -37 опасность
обморожения
1016.1 972.5
12 16.11 З 8 н/о н/о -22.5 -35 -35 опасность
обморожения
1016.1 972.5 -27.1 -24.7
15 16.11 ЮЗ 7 н/о н/о -22.1 -35 -35 опасность
обморожения
1015.8 972.3
18 16.11 ЮЗ 9 н/о н/о -21.1 -34 -34 опасность
обморожения
1016.0 972.6 -27.4 -21.1
21 16.11 ЮЗ 8 н/о н/о -20.8 -34 -34 опасность
обморожения
1015.7 972.4
00 17.11 ЮЗ 10 н/о н/о -21.8 -36 -36 опасность
обморожения
1016.3 973.0 -24.7 -20.7
03 17.11 ЮЗ 10 н/о н/о -24.0 -39 -39 опасность
обморожения
1016.0 972.6
06 17.11 ЮЗ 9 н/о н/о -24.9 -39 -39 опасность
обморожения
1016.4 973.0 -24.9 -20.7 81
09 17.11 ЮЗ 7 н/о н/о -24.8 -38 -38 опасность
обморожения
1017.5 974.1
12 17.11 Ю 5 н/о н/о -23.7 -35 -35 опасность
обморожения
1017.8 974.4 -25.0 -20.7
15 17.11 Ю 6 н/о н/о -21.9 -33 -33 опасность
обморожения
1018.7 975.2
18 17.11 ЮВ 3 н/о н/о -20.9 -29 -29 1018.9 975.4 -25.0 -20.7
21 17.11 ЮВ 6 н/о н/о -19.3 -30 -30 1019.6 976.2
00 18.11 ЮВ 11 н/о н/о -18.8 -32 -32 опасность
обморожения
1020.3 976.9 -25.0 -18.3
03 18.11 ЮВ 13 н/о н/о -17.4 -32 -32 опасность
обморожения
1020.3 977.1
06 18.11 ЮВ 13 н/о н/о -15.3 -29 -29 1020.3 977.2 -25.0 -15.2 62
09 18.11 ЮВ 13 н/о н/о -12.7 -25 -25 1020.0 977.2
12 18.11 ЮВ 5 н/о н/о -11.6 -19 -19 1020.4 977.6 -18.8 -15.2
15 18.11 ЮВ 3 н/о н/о -11.2 -17 -17 1021.1 978.4
18 18.11 ЮВ 4 н/о н/о -11.1 -18 -18 1021.4 978.8 -20.9 -11.0
21 18.11 ЮВ 6 н/о н/о -10.3 -18 -18 1021.7 979.2
00 19.11 ЮВ 15 н/о н/о -10.7 -23 -23 1022.0 979.5 -15.3 -9.7
03 19.11 ЮВ 17 н/о н/о -13.7 -28 -28 1022.0 979.4
06 19.11 В 15 н/о н/о -14.9 -29 -29 1021.5 978.9 -15.3 -9.7 2
09 19.11 В 13 н/о н/о -15.3 -29 -29 1021.0 978.4
12 19.11 В 12 н/о н/о -15.9 -29 -29 1020.9 978.3 -16.1 -9.7
15 19.11 В 12 н/о н/о -16.5 -30 -30 1019.9 977.2
18 19.11 В 9 н/о н/о -16.0 -28 -28 1019.3 976.5 -16.7 -15.0
21 19.11 В 12 н/о н/о -15.3 -28 -28 1017.5 974.8
00 20.11 В 13 н/о н/о -14.9 -28 -28 1016.0 973.4 -16.7 -14.7

 

Местоположение метеостанции Pelly Bay (Канада): широта 68.43 долгота -89.71 высота над уровнем моря 325 м.

В архиве по умолчанию представлена погода в Pelly Bay за последнюю неделю. Архивные данные за месяц целиком и за предыдущие месяцы, начиная с января 2011 года, Вы можете получить, выбрав интересующий диапазон дат из раскрывающегося списка и нажав кнопку "Ввод!".

Внимание! Время в таблицах - всемирное. Для получения местного времени необходимо прибавить поправку, которая в Pelly Bay равна -6 ч.

Смотрите также архив погоды в соседних городах и на ближайших метеорологических станциях:

Погода в Kugaaruk climate (Канада) (12 км)
Погода в Shepherd Bay (Канада) (157 км)
Погода в Spence bay (Канада) (198 км)
Погода в Gjoa Haven Climate (Канада) (251 км)
Погода в Wager Bay (Канада) (284 км)
Погода в Hall Beach Climate (Канада) (345 км)
Погода в Back River MAPS (Канада) (392 км)
Погода в Hat Island (Канада) (421 км)
Погода в Rowley Island (Канада) (436 км)
Погода в Baker Lake Climate (Канада) (536 км)

Пояснения к столбцам:

Ветер - указаны скорость ветра в м/с - средняя за 10 мин, порывы в срок и между сроками (в фигурных скобках) и направление, откуда дует ветер: С - северный, СВ - северо-восточный, В - восточный, ЮВ - юго-восточный, Ю - южный, ЮЗ - юго-западный, З - западный, СЗ - северо-западный.
Видимость - горизонтальная дальность видимости в метрах или километрах. При видимости от 1 до 10 км при отсутствии осадков обычно наблюдается дымка, при ухудшении видимости до 1 км и менее - туман. В сухую погоду видимость может ухудшаться дымом, пылью или мглою.
Явления - указаны атмосферные явления, наблюдавшиеся в срок или в последний час перед сроком; фигурными скобками обозначены явления, наблюдавшиеся между сроками (за 1-3 часа до срока); квадратными скобками обозначены град или гололедные отложения с указанием их диаметра в мм.
Облачность - указаны через наклонную черту общая и нижняя облачность в баллах и высота нижней границы облаков в метрах; квадратными скобками обозначены формы облаков: Ci - перистые, Cs - перисто-слоистые, Cc - перисто-кучевые, Ac - высококучевые, As - высокослоистые, Sc - слоисто-кучевые, Ns - слоисто-дождевые, Cu - кучевые, Cb - кучево-дождевые. Подробнее классификацию облаков см. в Атласе облаков (PDF).
T - Температура воздуха - температура, измеренная на высоте 2 м над землей.
Td - Температура точки росы - температура, при понижении до которой содержащийся в воздухе водяной пар достигнет насыщения.
f - Относительная влажность воздуха - влажноcть воздуха, измеренная на высоте 2 м над землей.
Te - Эффективная температура - температура, которую ощущает одетый по сезону человек в тени. Характеристика душности погоды. При расчете учитывается влияние влажности воздуха и скорости ветра на теплоощущения человека.
Tes - Эффективная температура на солнце - температура, которую ощущает человек, с поправкой на солнечный нагрев. Характеристика знойности погоды. Зависит от высоты солнца над горизонтом, облачности и скорости ветра. Ночью, в пасмурную погоду, а также при ветре 12 м/с и более поправка равна нулю.
P - Атмосферное давление - приведенное к уровню моря атмосферное давление.
Po - Атмосферное давление - измеренное на уровне метеостанции атмосферное давление.
Tmin - Минимальная температура - минимум температуры воздуха на высоте 2 м над землей.
Tmax - Максимальная температура - максимум температуры воздуха на высоте 2 м над землей.
R - Количество осадков - Количество выпавших осадков за период времени, мм. При наведении курсора мыши на число - период времени, за который выпало указанное количество осадков.
R24 - Количество осадков - Количество выпавших осадков за 24 часа, мм.
S - Снежный покров - Высота снежного покрова, см. При наведении курсора мыши на число - состояние снежного покрова и степень покрытия местности в баллах.